Weather in Hanak

Turkey     41°13′59″N   42°50′46″E
temp.,
°C
wind,
m/s
gust,
m/s
humid.,
%
clouds,
%
prec.,
mm/h
press.,
hPa
HPBL,
m
11 may, tue
tue1100:00−5ene11742 0.0 102315
03:00−5ese11875 0.0 102226
06:00−4se12755 0.0 1021136
09:00+4sse22450 0.0 1015692
12:00+9ssw25360 0.0 10121502
15:00+12wsw58330 0.0 10092069
18:00+8nw455612 0.0 1011196
21:000n33852 0.0 101725
12 may, wed
wed1200:00−1ene11860 0.0 101810
03:00−1e11900 0.0 101811
06:00+2ese11820 0.0 101746
09:00+9s35510 0.0 1014666
12:00+15sw68310 0.0 10122279
15:00+15sw483216 0.0 10112818
18:00+14s1146100 0.0 101113
21:00+8e115635 0.0 101412
13 may, thu
thu1300:00+5ene11650 0.0 101611
03:00+4ene11610 0.0 101611
06:00+6ene11600 0.0 101713
09:00+14s35445 0.0 1015622
12:00+18ssw573112 0.0 10132982
15:00+18s463296 0.0 10122815
18:00+11e236966 0.6 1016145
21:00+7e11835 1.6 101911
14 may, fri
fri1400:00+6ene11805 0.6 101811
03:00+6e11790 0.6 101811
06:00+8e11753 0.0 101813
09:00+14se24560 0.0 1016515
12:00+19s34365 0.0 10142452
15:00+19ssw233284 0.0 10132563
18:00+17wnw115063 0.0 101327
21:00+9ene12784 0.6 101811
15 may, sat
sat1500:00+7nne118559 0.5 101911
03:00+7e11855 0.5 101811
06:00+9e11835 0.0 101822
09:00+15se215946 0.0 1016559
12:00+19se324066 0.1 10132333
15:00+13n6771100 1.1 1016438
18:00+13ese346899 0.8 1016252
21:00+7se019150 1.3 101811